ASTRA 2E

Last updated on Sun Apr 12 2026 00:02:53 GMT+0000 (Coordinated Universal Time)

1 39285U 13056A 26101.31228284 .00000152 00000+0 00000+0 0 9998 2 39285 0.0659 20.2185 0001983 11.4277 308.8249 1.00274471 45740
UTC large
Height (km)
Speed (km/s)
/
Latitude / Longitude
Inclination (degrees)
Orbital Period (minutes)
Azimuth
Elevation
Range (km)
Doppler Factor

Next 0 passes for location: London (51.5072 / 0.1276)

Sorry there are no passes over London.
ASTRA 2E